Georgetown, DE

8:51 AM EDT on March 30, 2017 (GMT -0400)
Sussex County

Weather History for KGED - September, 2013

Change the Weather History Date:

Wednesday, September 11, 2013

  Actual Average Record
Temperature  
Mean Temperature 82 °F 70 °F  
Max Temperature 93 °F 80 °F 93 °F (2013)
Min Temperature 71 °F 61 °F 41 °F (1949)
Degree Days  
Heating Degree Days 0 1  
Month to date heating degree days 0 1  
Since 1 July heating degree days 0 2  
Cooling Degree Days 17 6  
Month to date cooling degree days 108 76  
Year to date cooling degree days 1295 1105  
Growing Degree Days 31 (Base 50)    
Moisture  
Dew Point 70 °F    
Average Humidity 71    
Maximum Humidity 93    
Minimum Humidity 49    
Precipitation  
Precipitation 0.00 in 0.15 in 3.25 in (1954)
Month to date precipitation T 1.67  
Year to date precipitation 41.99 30.94  
Sea Level Pressure  
Sea Level Pressure 30.11 in    
Wind  
Wind Speed 7 mph (SSW)    
Max Wind Speed 16 mph    
Max Gust Speed 21 mph    
Visibility 8 miles    
Events      
T = Trace of Precipitation, MM = Missing Value Source: NWS Daily Summary

Daily Weather History Graph

Daily Weather History Graph

Search for Another Location

Airport or City:

Trip Planner

Search our weather history database for the weather conditions in past years. The results will help you decide how hot, cold, wet, or windy it might be!

Date:

Astronomy

Sep. 11, 2013 Rise Set
Actual Time 6:39 AM EDT 7:15 PM EDT
Civil Twilight 6:12 AM EDT 7:42 PM EDT
Nautical Twilight 5:41 AM EDT 8:13 PM EDT
Astronomical Twilight 5:08 AM EDT 8:46 PM EDT
Moon 1:01 PM EDT (9/11) 11:13 PM EDT (9/11)
Length of Visible Light 13h 29m
Length of Day
12h 36m
Waxing Crescent, 38% of the Moon is Illuminated
Sep 11
Waxing Crescent
Sep 12
First Quarter
Sep 19
Full
Sep 26
Last Quarter
Oct 4
New

Hourly Weather History & Observations

Time (EDT) Temp. Heat Index Dew Point Humidity Pressure Visibility Wind Dir Wind Speed Gust Speed Precip Events Conditions
12:54 AM 73.0 °F - 66.9 °F 81% 30.17 in 10.0 mi SSW 4.6 mph - N/A   Clear
1:54 AM 73.0 °F - 66.9 °F 81% 30.16 in 9.0 mi SSW 6.9 mph - N/A   Clear
2:54 AM 72.0 °F - 68.0 °F 87% 30.14 in 8.0 mi SSW 3.5 mph - N/A   Clear
3:54 AM 71.1 °F - 68.0 °F 90% 30.14 in 7.0 mi SSW 3.5 mph - N/A   Clear
4:54 AM 72.0 °F - 68.0 °F 87% 30.14 in 6.0 mi SSW 3.5 mph - N/A   Clear
5:54 AM 71.1 °F - 68.0 °F 90% 30.14 in 5.0 mi Calm Calm - N/A   Clear
6:54 AM 72.0 °F - 69.1 °F 91% 30.16 in 3.0 mi SSW 4.6 mph - N/A   Clear
7:54 AM 73.9 °F - 71.1 °F 91% 30.17 in 4.0 mi SSW 5.8 mph - N/A   Clear
8:54 AM 79.0 °F - 71.1 °F 77% 30.17 in 7.0 mi SW 6.9 mph - N/A   Clear
9:54 AM 82.9 °F 87.5 °F 71.1 °F 67% 30.17 in 8.0 mi WSW 4.6 mph - N/A   Clear
10:54 AM 86.0 °F 92.2 °F 72.0 °F 63% 30.15 in 9.0 mi SW 8.1 mph - N/A   Clear
11:54 AM 89.1 °F 96.0 °F 72.0 °F 57% 30.14 in - SSW 8.1 mph - N/A   Unknown
12:54 PM 91.0 °F 97.6 °F 71.1 °F 52% 30.13 in 10.0 mi SSW 10.4 mph - N/A   Clear
1:54 PM 91.9 °F 97.4 °F 70.0 °F 48% 30.11 in 10.0 mi SW 13.8 mph 20.7 mph N/A   Partly Cloudy
2:54 PM 91.9 °F 97.4 °F 70.0 °F 48% 30.09 in 10.0 mi SW 11.5 mph - N/A   Partly Cloudy
3:54 PM 91.9 °F 98.4 °F 71.1 °F 50% 30.07 in 10.0 mi South 9.2 mph - N/A   Scattered Clouds
4:54 PM 90.0 °F 96.4 °F 71.1 °F 54% 30.06 in 10.0 mi SSW 11.5 mph - N/A   Scattered Clouds
5:54 PM 88.0 °F 91.4 °F 68.0 °F 51% 30.06 in 10.0 mi SSW 11.5 mph - N/A   Clear
6:54 PM 84.0 °F 87.0 °F 68.0 °F 58% 30.06 in 10.0 mi SSW 5.8 mph - N/A   Clear
7:54 PM 79.0 °F - 68.0 °F 69% 30.07 in 10.0 mi South 4.6 mph - N/A   Clear
8:54 PM 78.1 °F - 71.1 °F 79% 30.07 in 9.0 mi South 8.1 mph - N/A   Clear
9:54 PM 75.9 °F - 70.0 °F 82% 30.07 in 8.0 mi SSW 5.8 mph - N/A   Clear
10:54 PM 75.0 °F - 70.0 °F 84% 30.06 in 8.0 mi SSW 6.9 mph - N/A   Clear
11:54 PM 73.9 °F - 69.1 °F 85% 30.05 in 8.0 mi South 5.8 mph - N/A   Clear